Time,TemperatureF,DewpointF,PressureIn,WindDirection,WindDirectionDegrees,WindSpeedMPH,WindSpeedGustMPH,Humidity,HourlyPrecipIn,Conditions,Clouds,dailyrainin,SoftwareType,DateUTC
2013-03-24 00:01:00,22.0,21.0,27.29,South,180,2.0,4.0,90,0.00,,,0.00,Rainwise IP-100,2013-03-24 06:01:00,
2013-03-24 00:06:00,22.0,21.0,27.29,South,180,4.0,4.0,89,0.00,,,0.00,Rainwise IP-100,2013-03-24 06:06:00,
2013-03-24 00:11:00,23.0,18.0,27.29,ESE,112,3.0,4.0,86,0.00,,,0.00,Rainwise IP-100,2013-03-24 06:11:00,
2013-03-24 00:16:00,23.0,18.0,27.29,ESE,112,3.0,5.0,84,0.00,,,0.00,Rainwise IP-100,2013-03-24 06:16:00,
2013-03-24 00:21:00,22.0,18.0,27.29,ESE,112,5.0,5.0,84,0.00,,,0.00,Rainwise IP-100,2013-03-24 06:21:00,
2013-03-24 00:26:00,22.0,18.0,27.29,ESE,112,2.0,6.0,84,0.00,,,0.00,Rainwise IP-100,2013-03-24 06:26:00,
2013-03-24 00:32:00,22.0,18.0,27.29,SE,135,1.0,5.0,84,0.00,,,0.00,Rainwise IP-100,2013-03-24 06:32:00,
2013-03-24 00:37:00,22.0,18.0,27.30,SE,135,2.0,5.0,83,0.00,,,0.00,Rainwise IP-100,2013-03-24 06:37:00,
2013-03-24 00:42:00,22.0,18.0,27.30,ESE,112,2.0,4.0,83,0.00,,,0.00,Rainwise IP-100,2013-03-24 06:42:00,
2013-03-24 00:47:00,21.0,16.0,27.30,East,90,2.0,5.0,85,0.00,,,0.00,Rainwise IP-100,2013-03-24 06:47:00,
2013-03-24 00:52:00,21.0,16.0,27.30,East,90,1.0,3.0,85,0.00,,,0.00,Rainwise IP-100,2013-03-24 06:52:00,
2013-03-24 00:57:00,21.0,16.0,27.30,ENE,67,2.0,4.0,86,0.00,,,0.00,Rainwise IP-100,2013-03-24 06:57:00,
2013-03-24 01:02:00,21.0,16.0,27.30,ESE,112,1.0,5.0,85,0.00,,,0.00,Rainwise IP-100,2013-03-24 07:02:00,
2013-03-24 01:07:00,21.0,16.0,27.30,ENE,67,1.0,7.0,85,0.00,,,0.00,Rainwise IP-100,2013-03-24 07:07:00,
2013-03-24 01:12:00,21.0,16.0,27.30,ENE,67,1.0,6.0,84,0.00,,,0.00,Rainwise IP-100,2013-03-24 07:12:00,
2013-03-24 01:17:00,21.0,16.0,27.30,ENE,67,2.0,5.0,84,0.00,,,0.00,Rainwise IP-100,2013-03-24 07:17:00,
2013-03-24 01:22:00,21.0,16.0,27.30,ENE,67,1.0,4.0,85,0.00,,,0.00,Rainwise IP-100,2013-03-24 07:22:00,
2013-03-24 01:27:00,20.0,16.0,27.30,ENE,67,3.0,4.0,85,0.00,,,0.00,Rainwise IP-100,2013-03-24 07:27:00,
2013-03-24 01:32:00,20.0,16.0,27.30,ENE,67,2.0,4.0,85,0.00,,,0.00,Rainwise IP-100,2013-03-24 07:32:00,
2013-03-24 01:37:00,20.0,16.0,27.31,ENE,67,0.0,3.0,85,0.00,,,0.00,Rainwise IP-100,2013-03-24 07:37:00,
2013-03-24 01:42:00,19.0,18.0,27.31,ENE,67,0.0,0.0,88,0.00,,,0.00,Rainwise IP-100,2013-03-24 07:42:00,
2013-03-24 01:47:00,19.0,18.0,27.31,WNW,292,0.0,2.0,87,0.00,,,0.00,Rainwise IP-100,2013-03-24 07:47:00,
2013-03-24 01:52:00,19.0,18.0,27.31,NE,45,2.0,0.0,88,0.00,,,0.00,Rainwise IP-100,2013-03-24 07:52:00,
2013-03-24 01:57:00,19.0,18.0,27.31,NE,45,0.0,4.0,88,0.00,,,0.00,Rainwise IP-100,2013-03-24 07:57:00,
2013-03-24 02:02:00,19.0,18.0,27.31,NE,45,0.0,1.0,87,0.00,,,0.00,Rainwise IP-100,2013-03-24 08:02:00,
2013-03-24 02:07:00,19.0,18.0,27.32,NE,45,4.0,4.0,87,0.00,,,0.00,Rainwise IP-100,2013-03-24 08:07:00,
2013-03-24 02:12:00,19.0,16.0,27.32,ENE,67,1.0,6.0,86,0.00,,,0.00,Rainwise IP-100,2013-03-24 08:12:00,
2013-03-24 02:17:00,19.0,16.0,27.32,East,90,1.0,6.0,86,0.00,,,0.00,Rainwise IP-100,2013-03-24 08:17:00,
2013-03-24 02:22:00,19.0,16.0,27.32,East,90,3.0,6.0,85,0.00,,,0.00,Rainwise IP-100,2013-03-24 08:22:00,
2013-03-24 02:27:00,20.0,16.0,27.32,ENE,67,1.0,5.0,83,0.00,,,0.00,Rainwise IP-100,2013-03-24 08:27:00,
2013-03-24 02:32:00,19.0,16.0,27.32,ENE,67,0.0,2.0,85,0.00,,,0.00,Rainwise IP-100,2013-03-24 08:32:00,
2013-03-24 02:37:00,19.0,16.0,27.32,East,90,2.0,4.0,86,0.00,,,0.00,Rainwise IP-100,2013-03-24 08:37:00,
2013-03-24 02:42:00,19.0,16.0,27.32,East,90,3.0,5.0,86,0.00,,,0.00,Rainwise IP-100,2013-03-24 08:42:00,
2013-03-24 02:47:00,19.0,16.0,27.32,ENE,67,0.0,4.0,86,0.00,,,0.00,Rainwise IP-100,2013-03-24 08:47:00,
2013-03-24 02:52:00,18.0,16.0,27.32,ENE,67,0.0,1.0,86,0.00,,,0.00,Rainwise IP-100,2013-03-24 08:52:00,
2013-03-24 02:57:00,18.0,16.0,27.33,ENE,67,6.0,6.0,89,0.00,,,0.00,Rainwise IP-100,2013-03-24 08:57:00,
2013-03-24 03:02:00,19.0,18.0,27.33,ENE,67,4.0,6.0,88,0.00,,,0.00,Rainwise IP-100,2013-03-24 09:02:00,
2013-03-24 03:07:00,19.0,18.0,27.32,ENE,67,0.0,5.0,87,0.00,,,0.00,Rainwise IP-100,2013-03-24 09:07:00,
2013-03-24 03:12:00,18.0,16.0,27.32,ENE,67,2.0,3.0,89,0.00,,,0.00,Rainwise IP-100,2013-03-24 09:12:00,
2013-03-24 03:17:00,19.0,18.0,27.32,ESE,112,4.0,5.0,87,0.00,,,0.00,Rainwise IP-100,2013-03-24 09:17:00,
2013-03-24 03:22:00,19.0,16.0,27.32,ESE,112,3.0,5.0,86,0.00,,,0.00,Rainwise IP-100,2013-03-24 09:22:00,
2013-03-24 03:27:00,19.0,16.0,27.32,ENE,67,1.0,6.0,86,0.00,,,0.00,Rainwise IP-100,2013-03-24 09:27:00,
2013-03-24 03:32:00,19.0,18.0,27.32,ENE,67,6.0,6.0,88,0.00,,,0.00,Rainwise IP-100,2013-03-24 09:32:00,
2013-03-24 03:37:00,19.0,18.0,27.33,East,90,3.0,7.0,89,0.00,,,0.00,Rainwise IP-100,2013-03-24 09:37:00,
2013-03-24 03:42:00,19.0,18.0,27.33,NE,45,3.0,6.0,89,0.00,,,0.00,Rainwise IP-100,2013-03-24 09:42:00,
2013-03-24 03:47:00,19.0,18.0,27.32,ENE,67,2.0,6.0,89,0.00,,,0.00,Rainwise IP-100,2013-03-24 09:47:00,
2013-03-24 03:52:00,19.0,18.0,27.32,North,360,4.0,5.0,91,0.00,,,0.00,Rainwise IP-100,2013-03-24 09:52:00,
2013-03-24 03:57:00,19.0,18.0,27.32,ENE,67,4.0,6.0,92,0.00,,,0.00,Rainwise IP-100,2013-03-24 09:57:00,
2013-03-24 04:02:00,20.0,18.0,27.32,ESE,112,2.0,7.0,91,0.00,,,0.00,Rainwise IP-100,2013-03-24 10:02:00,
2013-03-24 04:07:00,20.0,18.0,27.32,ESE,112,0.0,5.0,91,0.00,,,0.00,Rainwise IP-100,2013-03-24 10:07:00,
2013-03-24 04:12:00,20.0,16.0,27.32,ENE,67,1.0,6.0,86,0.00,,,0.00,Rainwise IP-100,2013-03-24 10:12:00,
2013-03-24 04:17:00,19.0,16.0,27.32,ENE,67,1.0,6.0,86,0.00,,,0.00,Rainwise IP-100,2013-03-24 10:17:00,
2013-03-24 04:22:00,19.0,16.0,27.32,ENE,67,3.0,6.0,84,0.00,,,0.00,Rainwise IP-100,2013-03-24 10:22:00,
2013-03-24 04:27:00,19.0,16.0,27.32,ENE,67,2.0,6.0,84,0.00,,,0.00,Rainwise IP-100,2013-03-24 10:27:00,
2013-03-24 04:32:00,20.0,16.0,27.32,ESE,112,0.0,5.0,83,0.00,,,0.00,Rainwise IP-100,2013-03-24 10:32:00,
2013-03-24 04:37:00,19.0,16.0,27.33,NE,45,1.0,3.0,84,0.00,,,0.00,Rainwise IP-100,2013-03-24 10:37:00,
2013-03-24 04:42:00,19.0,16.0,27.33,NE,45,1.0,1.0,85,0.00,,,0.00,Rainwise IP-100,2013-03-24 10:42:00,
2013-03-24 04:47:00,19.0,18.0,27.33,NNE,22,1.0,3.0,88,0.00,,,0.00,Rainwise IP-100,2013-03-24 10:47:00,
2013-03-24 04:52:00,19.0,18.0,27.33,NNE,22,0.0,5.0,90,0.00,,,0.00,Rainwise IP-100,2013-03-24 10:52:00,
2013-03-24 04:57:00,19.0,18.0,27.33,ESE,112,0.0,5.0,89,0.00,,,0.00,Rainwise IP-100,2013-03-24 10:57:00,
2013-03-24 05:02:00,20.0,18.0,27.33,East,90,2.0,3.0,88,0.00,,,0.00,Rainwise IP-100,2013-03-24 11:02:00,
2013-03-24 05:07:00,20.0,16.0,27.33,ESE,112,1.0,5.0,85,0.00,,,0.00,Rainwise IP-100,2013-03-24 11:07:00,
2013-03-24 05:12:00,20.0,16.0,27.33,East,90,3.0,5.0,83,0.00,,,0.00,Rainwise IP-100,2013-03-24 11:12:00,
2013-03-24 05:18:00,20.0,16.0,27.33,ENE,67,2.0,6.0,83,0.00,,,0.00,Rainwise IP-100,2013-03-24 11:18:00,
2013-03-24 05:23:00,20.0,16.0,27.33,ENE,67,1.0,5.0,85,0.00,,,0.00,Rainwise IP-100,2013-03-24 11:23:00,
2013-03-24 05:28:00,21.0,16.0,27.32,ENE,67,0.0,4.0,85,0.00,,,0.00,Rainwise IP-100,2013-03-24 11:28:00,
2013-03-24 05:33:00,21.0,16.0,27.32,ENE,67,0.0,0.0,85,0.00,,,0.00,Rainwise IP-100,2013-03-24 11:33:00,
2013-03-24 05:38:00,21.0,16.0,27.32,ENE,67,0.0,3.0,86,0.00,,,0.00,Rainwise IP-100,2013-03-24 11:38:00,
2013-03-24 05:43:00,21.0,18.0,27.32,ENE,67,1.0,2.0,88,0.00,,,0.00,Rainwise IP-100,2013-03-24 11:43:00,
2013-03-24 05:48:00,21.0,18.0,27.33,ESE,112,2.0,6.0,88,0.00,,,0.00,Rainwise IP-100,2013-03-24 11:48:00,
2013-03-24 05:53:00,21.0,18.0,27.33,East,90,2.0,6.0,87,0.00,,,0.00,Rainwise IP-100,2013-03-24 11:53:00,
2013-03-24 05:58:00,21.0,16.0,27.33,ENE,67,6.0,6.0,86,0.00,,,0.00,Rainwise IP-100,2013-03-24 11:58:00,
2013-03-24 06:03:00,21.0,18.0,27.33,ENE,67,6.0,6.0,88,0.00,,,0.00,Rainwise IP-100,2013-03-24 12:03:00,
2013-03-24 06:08:00,21.0,18.0,27.33,ENE,67,6.0,6.0,88,0.00,,,0.00,Rainwise IP-100,2013-03-24 12:08:00,
2013-03-24 06:13:00,21.0,18.0,27.33,East,90,6.0,7.0,89,0.00,,,0.00,Rainwise IP-100,2013-03-24 12:13:00,
2013-03-24 06:18:00,21.0,18.0,27.33,ESE,112,3.0,6.0,89,0.00,,,0.00,Rainwise IP-100,2013-03-24 12:18:00,
2013-03-24 06:23:00,21.0,18.0,27.33,ENE,67,1.0,5.0,88,0.00,,,0.00,Rainwise IP-100,2013-03-24 12:23:00,
2013-03-24 06:28:00,21.0,18.0,27.34,East,90,2.0,5.0,88,0.00,,,0.00,Rainwise IP-100,2013-03-24 12:28:00,
2013-03-24 06:33:00,21.0,16.0,27.34,ESE,112,4.0,5.0,86,0.00,,,0.00,Rainwise IP-100,2013-03-24 12:33:00,
2013-03-24 06:38:00,21.0,18.0,27.34,East,90,3.0,4.0,88,0.00,,,0.00,Rainwise IP-100,2013-03-24 12:38:00,
2013-03-24 06:43:00,21.0,18.0,27.34,ENE,67,1.0,5.0,88,0.00,,,0.00,Rainwise IP-100,2013-03-24 12:43:00,
2013-03-24 06:48:00,21.0,18.0,27.34,ESE,112,4.0,5.0,88,0.00,,,0.00,Rainwise IP-100,2013-03-24 12:48:00,
2013-03-24 06:53:00,21.0,18.0,27.34,ESE,112,6.0,6.0,89,0.00,,,0.00,Rainwise IP-100,2013-03-24 12:53:00,
2013-03-24 06:58:00,21.0,18.0,27.34,East,90,0.0,6.0,88,0.00,,,0.00,Rainwise IP-100,2013-03-24 12:58:00,
2013-03-24 07:03:00,21.0,18.0,27.34,East,90,1.0,2.0,89,0.00,,,0.00,Rainwise IP-100,2013-03-24 13:03:00,
2013-03-24 07:08:00,21.0,18.0,27.34,ENE,67,3.0,7.0,88,0.00,,,0.00,Rainwise IP-100,2013-03-24 13:08:00,
2013-03-24 07:13:00,21.0,18.0,27.34,NE,45,4.0,6.0,87,0.00,,,0.00,Rainwise IP-100,2013-03-24 13:13:00,
2013-03-24 07:18:00,21.0,18.0,27.34,ESE,112,2.0,6.0,88,0.00,,,0.00,Rainwise IP-100,2013-03-24 13:18:00,
2013-03-24 07:23:00,21.0,18.0,27.34,ENE,67,0.0,5.0,88,0.00,,,0.00,Rainwise IP-100,2013-03-24 13:23:00,
2013-03-24 07:28:00,21.0,18.0,27.34,East,90,5.0,6.0,88,0.00,,,0.00,Rainwise IP-100,2013-03-24 13:28:00,
2013-03-24 07:33:00,21.0,18.0,27.34,ESE,112,1.0,6.0,88,0.00,,,0.00,Rainwise IP-100,2013-03-24 13:33:00,
2013-03-24 07:38:00,21.0,18.0,27.34,ENE,67,2.0,6.0,88,0.00,,,0.00,Rainwise IP-100,2013-03-24 13:38:00,
2013-03-24 07:43:00,21.0,18.0,27.34,ENE,67,3.0,5.0,88,0.00,,,0.00,Rainwise IP-100,2013-03-24 13:43:00,
2013-03-24 07:48:00,21.0,18.0,27.34,ENE,67,4.0,6.0,88,0.00,,,0.00,Rainwise IP-100,2013-03-24 13:48:00,
2013-03-24 07:53:00,21.0,18.0,27.34,ENE,67,4.0,7.0,88,0.00,,,0.00,Rainwise IP-100,2013-03-24 13:53:00,
2013-03-24 07:58:00,21.0,18.0,27.34,ENE,67,3.0,6.0,89,0.00,,,0.00,Rainwise IP-100,2013-03-24 13:58:00,
2013-03-24 08:03:00,21.0,18.0,27.34,ENE,67,3.0,6.0,88,0.00,,,0.00,Rainwise IP-100,2013-03-24 14:03:00,
2013-03-24 08:08:00,21.0,18.0,27.34,ENE,67,6.0,6.0,88,0.00,,,0.00,Rainwise IP-100,2013-03-24 14:08:00,
2013-03-24 08:13:00,21.0,18.0,27.34,ENE,67,4.0,6.0,87,0.00,,,0.00,Rainwise IP-100,2013-03-24 14:13:00,
2013-03-24 08:18:00,21.0,18.0,27.34,ENE,67,4.0,6.0,87,0.00,,,0.00,Rainwise IP-100,2013-03-24 14:18:00,
2013-03-24 08:23:00,21.0,16.0,27.34,ENE,67,6.0,7.0,86,0.00,,,0.00,Rainwise IP-100,2013-03-24 14:23:00,
2013-03-24 08:28:00,21.0,16.0,27.34,ENE,67,5.0,8.0,86,0.00,,,0.00,Rainwise IP-100,2013-03-24 14:28:00,
2013-03-24 08:33:00,21.0,18.0,27.34,NE,45,1.0,7.0,87,0.00,,,0.00,Rainwise IP-100,2013-03-24 14:33:00,
2013-03-24 08:38:00,21.0,18.0,27.34,NE,45,0.0,6.0,87,0.00,,,0.00,Rainwise IP-100,2013-03-24 14:38:00,
2013-03-24 08:43:00,21.0,16.0,27.34,ENE,67,4.0,7.0,86,0.00,,,0.00,Rainwise IP-100,2013-03-24 14:43:00,
2013-03-24 08:48:00,21.0,16.0,27.34,ENE,67,3.0,7.0,86,0.00,,,0.00,Rainwise IP-100,2013-03-24 14:48:00,
2013-03-24 08:53:00,21.0,16.0,27.34,NNE,22,3.0,6.0,86,0.00,,,0.00,Rainwise IP-100,2013-03-24 14:53:00,
2013-03-24 08:58:00,22.0,18.0,27.34,ESE,112,3.0,7.0,84,0.00,,,0.00,Rainwise IP-100,2013-03-24 14:58:00,
2013-03-24 09:03:00,22.0,18.0,27.34,ENE,67,1.0,7.0,84,0.00,,,0.00,Rainwise IP-100,2013-03-24 15:03:00,
2013-03-24 09:08:00,22.0,18.0,27.34,ENE,67,2.0,7.0,84,0.00,,,0.00,Rainwise IP-100,2013-03-24 15:08:00,
2013-03-24 09:13:00,22.0,18.0,27.34,NE,45,2.0,6.0,84,0.00,,,0.00,Rainwise IP-100,2013-03-24 15:13:00,
2013-03-24 09:18:00,22.0,18.0,27.34,ENE,67,2.0,7.0,84,0.00,,,0.00,Rainwise IP-100,2013-03-24 15:18:00,
2013-03-24 09:23:00,22.0,18.0,27.34,ENE,67,5.0,6.0,84,0.00,,,0.00,Rainwise IP-100,2013-03-24 15:23:00,
2013-03-24 09:28:00,23.0,18.0,27.33,ESE,112,1.0,6.0,83,0.00,,,0.00,Rainwise IP-100,2013-03-24 15:28:00,
2013-03-24 09:33:00,24.0,21.0,27.33,East,90,2.0,3.0,81,0.00,,,0.00,Rainwise IP-100,2013-03-24 15:33:00,
2013-03-24 09:38:00,25.0,21.0,27.33,NE,45,4.0,5.0,78,0.00,,,0.00,Rainwise IP-100,2013-03-24 15:38:00,
2013-03-24 09:43:00,25.0,21.0,27.33,WNW,292,1.0,5.0,77,0.00,,,0.00,Rainwise IP-100,2013-03-24 15:43:00,
2013-03-24 09:48:00,26.0,18.0,27.32,NE,45,2.0,6.0,74,0.00,,,0.00,Rainwise IP-100,2013-03-24 15:48:00,
2013-03-24 09:53:00,26.0,18.0,27.32,NNE,22,3.0,6.0,74,0.00,,,0.00,Rainwise IP-100,2013-03-24 15:53:00,
2013-03-24 09:58:00,27.0,21.0,27.32,ENE,67,2.0,6.0,70,0.00,,,0.00,Rainwise IP-100,2013-03-24 15:58:00,
2013-03-24 10:03:00,27.0,21.0,27.32,ENE,67,3.0,7.0,70,0.00,,,0.00,Rainwise IP-100,2013-03-24 16:03:00,
2013-03-24 10:08:00,28.0,21.0,27.32,North,360,4.0,6.0,72,0.00,,,0.00,Rainwise IP-100,2013-03-24 16:08:00,
2013-03-24 10:13:00,28.0,21.0,27.32,NE,45,0.0,7.0,70,0.00,,,0.00,Rainwise IP-100,2013-03-24 16:13:00,
2013-03-24 10:18:00,28.0,18.0,27.31,ESE,112,2.0,7.0,67,0.00,,,0.00,Rainwise IP-100,2013-03-24 16:18:00,
2013-03-24 10:23:00,29.0,21.0,27.31,WNW,292,2.0,6.0,67,0.00,,,0.00,Rainwise IP-100,2013-03-24 16:23:00,
2013-03-24 10:28:00,29.0,21.0,27.30,SSW,202,3.0,7.0,68,0.00,,,0.00,Rainwise IP-100,2013-03-24 16:28:00,
2013-03-24 10:33:00,29.0,21.0,27.30,SSE,157,2.0,5.0,68,0.00,,,0.00,Rainwise IP-100,2013-03-24 16:33:00,
2013-03-24 10:38:00,29.0,18.0,27.30,ESE,112,1.0,5.0,65,0.00,,,0.00,Rainwise IP-100,2013-03-24 16:38:00,
2013-03-24 10:44:00,30.0,21.0,27.30,ESE,112,1.0,6.0,66,0.00,,,0.00,Rainwise IP-100,2013-03-24 16:44:00,
2013-03-24 10:49:00,31.0,21.0,27.30,ENE,67,0.0,7.0,65,0.00,,,0.00,Rainwise IP-100,2013-03-24 16:49:00,
2013-03-24 10:54:00,32.0,23.0,27.30,North,360,4.0,6.0,64,0.00,,,0.00,Rainwise IP-100,2013-03-24 16:54:00,
2013-03-24 10:59:00,33.0,21.0,27.28,SE,135,2.0,5.0,59,0.00,,,0.00,Rainwise IP-100,2013-03-24 16:59:00,
2013-03-24 11:04:00,32.0,21.0,27.28,SE,135,1.0,5.0,60,0.00,,,0.00,Rainwise IP-100,2013-03-24 17:04:00,
2013-03-24 11:09:00,33.0,21.0,27.28,WNW,292,0.0,4.0,60,0.00,,,0.00,Rainwise IP-100,2013-03-24 17:09:00,
2013-03-24 11:14:00,33.0,23.0,27.28,West,270,5.0,6.0,61,0.00,,,0.00,Rainwise IP-100,2013-03-24 17:14:00,
2013-03-24 11:19:00,31.0,18.0,27.28,WNW,292,5.0,9.0,61,0.00,,,0.00,Rainwise IP-100,2013-03-24 17:19:00,
2013-03-24 11:24:00,33.0,23.0,27.28,NNW,337,3.0,9.0,61,0.00,,,0.00,Rainwise IP-100,2013-03-24 17:24:00,
2013-03-24 11:29:00,33.0,23.0,27.28,WNW,292,5.0,6.0,61,0.00,,,0.00,Rainwise IP-100,2013-03-24 17:29:00,
2013-03-24 11:34:00,32.0,21.0,27.29,West,270,0.0,9.0,61,0.00,,,0.00,Rainwise IP-100,2013-03-24 17:34:00,
2013-03-24 11:39:00,32.0,21.0,27.29,West,270,7.0,8.0,60,0.00,,,0.00,Rainwise IP-100,2013-03-24 17:39:00,
2013-03-24 11:44:00,33.0,21.0,27.28,North,360,6.0,9.0,60,0.00,,,0.00,Rainwise IP-100,2013-03-24 17:44:00,
2013-03-24 11:49:00,31.0,21.0,27.28,WNW,292,5.0,11.0,63,0.00,,,0.00,Rainwise IP-100,2013-03-24 17:49:00,
2013-03-24 11:54:00,33.0,23.0,27.27,East,90,2.0,6.0,61,0.00,,,0.00,Rainwise IP-100,2013-03-24 17:54:00,
2013-03-24 11:59:00,34.0,21.0,27.27,North,360,4.0,7.0,57,0.00,,,0.00,Rainwise IP-100,2013-03-24 17:59:00,
2013-03-24 12:04:00,35.0,21.0,27.26,NE,45,5.0,6.0,56,0.00,,,0.00,Rainwise IP-100,2013-03-24 18:04:00,
2013-03-24 12:09:00,35.0,21.0,27.26,NNW,337,0.0,7.0,54,0.00,,,0.00,Rainwise IP-100,2013-03-24 18:09:00,
2013-03-24 12:14:00,35.0,21.0,27.26,WNW,292,1.0,6.0,54,0.00,,,0.00,Rainwise IP-100,2013-03-24 18:14:00,
2013-03-24 12:19:00,34.0,21.0,27.26,WSW,247,3.0,6.0,56,0.00,,,0.00,Rainwise IP-100,2013-03-24 18:19:00,
2013-03-24 12:24:00,35.0,21.0,27.25,NNW,337,3.0,7.0,56,0.00,,,0.00,Rainwise IP-100,2013-03-24 18:24:00,
2013-03-24 12:29:00,33.0,21.0,27.25,West,270,4.0,9.0,56,0.00,,,0.00,Rainwise IP-100,2013-03-24 18:29:00,
2013-03-24 12:34:00,34.0,21.0,27.26,NW,315,1.0,7.0,56,0.00,,,0.00,Rainwise IP-100,2013-03-24 18:34:00,
2013-03-24 12:39:00,32.0,18.0,27.26,WNW,292,6.0,9.0,56,0.00,,,0.00,Rainwise IP-100,2013-03-24 18:39:00,
2013-03-24 12:44:00,33.0,21.0,27.26,NW,315,0.0,10.0,56,0.00,,,0.00,Rainwise IP-100,2013-03-24 18:44:00,
2013-03-24 12:49:00,34.0,21.0,27.26,NNE,22,1.0,6.0,54,0.00,,,0.00,Rainwise IP-100,2013-03-24 18:49:00,
2013-03-24 12:54:00,35.0,21.0,27.25,SW,225,2.0,6.0,53,0.00,,,0.00,Rainwise IP-100,2013-03-24 18:54:00,
2013-03-24 12:59:00,36.0,21.0,27.25,NNE,22,2.0,8.0,52,0.00,,,0.00,Rainwise IP-100,2013-03-24 18:59:00,
2013-03-24 13:04:00,36.0,18.0,27.24,NNW,337,6.0,9.0,48,0.00,,,0.00,Rainwise IP-100,2013-03-24 19:04:00,
2013-03-24 13:09:00,36.0,21.0,27.24,NNW,337,7.0,9.0,51,0.00,,,0.00,Rainwise IP-100,2013-03-24 19:09:00,
2013-03-24 13:14:00,37.0,18.0,27.23,NNW,337,7.0,9.0,47,0.00,,,0.00,Rainwise IP-100,2013-03-24 19:14:00,
2013-03-24 13:19:00,36.0,18.0,27.23,North,360,7.0,10.0,49,0.00,,,0.00,Rainwise IP-100,2013-03-24 19:19:00,
2013-03-24 13:24:00,36.0,18.0,27.23,NNW,337,6.0,8.0,49,0.00,,,0.00,Rainwise IP-100,2013-03-24 19:24:00,
2013-03-24 13:29:00,36.0,18.0,27.23,North,360,6.0,8.0,48,0.00,,,0.00,Rainwise IP-100,2013-03-24 19:29:00,
2013-03-24 13:34:00,37.0,18.0,27.23,North,360,5.0,9.0,47,0.00,,,0.00,Rainwise IP-100,2013-03-24 19:34:00,
2013-03-24 13:39:00,36.0,18.0,27.23,SW,225,0.0,10.0,49,0.00,,,0.00,Rainwise IP-100,2013-03-24 19:39:00,
2013-03-24 13:44:00,37.0,18.0,27.22,WNW,292,6.0,7.0,47,0.00,,,0.00,Rainwise IP-100,2013-03-24 19:44:00,
2013-03-24 13:49:00,37.0,18.0,27.22,WSW,247,5.0,9.0,46,0.00,,,0.00,Rainwise IP-100,2013-03-24 19:49:00,
2013-03-24 13:54:00,37.0,18.0,27.22,WNW,292,7.0,7.0,44,0.00,,,0.00,Rainwise IP-100,2013-03-24 19:54:00,
2013-03-24 13:59:00,37.0,16.0,27.22,WNW,292,0.0,9.0,42,0.00,,,0.00,Rainwise IP-100,2013-03-24 19:59:00,
2013-03-24 14:04:00,38.0,18.0,27.21,NNW,337,5.0,7.0,44,0.00,,,0.00,Rainwise IP-100,2013-03-24 20:04:00,
2013-03-24 14:09:00,38.0,18.0,27.21,NW,315,7.0,9.0,42,0.00,,,0.00,Rainwise IP-100,2013-03-24 20:09:00,
2013-03-24 14:14:00,38.0,16.0,27.20,NE,45,6.0,9.0,40,0.00,,,0.00,Rainwise IP-100,2013-03-24 20:14:00,
2013-03-24 14:19:00,38.0,18.0,27.20,NNW,337,6.0,9.0,42,0.00,,,0.00,Rainwise IP-100,2013-03-24 20:19:00,
2013-03-24 14:24:00,39.0,18.0,27.20,West,270,3.0,7.0,40,0.00,,,0.00,Rainwise IP-100,2013-03-24 20:24:00,
2013-03-24 14:29:00,37.0,16.0,27.20,West,270,5.0,9.0,41,0.00,,,0.00,Rainwise IP-100,2013-03-24 20:29:00,
2013-03-24 14:34:00,38.0,16.0,27.19,North,360,6.0,7.0,39,0.00,,,0.00,Rainwise IP-100,2013-03-24 20:34:00,
2013-03-24 14:39:00,39.0,16.0,27.19,NE,45,1.0,8.0,39,0.00,,,0.00,Rainwise IP-100,2013-03-24 20:39:00,
2013-03-24 14:44:00,40.0,16.0,27.18,North,360,4.0,7.0,36,0.00,,,0.00,Rainwise IP-100,2013-03-24 20:44:00,
2013-03-24 14:49:00,41.0,16.0,27.18,SE,135,1.0,6.0,33,0.00,,,0.00,Rainwise IP-100,2013-03-24 20:49:00,
2013-03-24 14:54:00,41.0,16.0,27.17,NNE,22,3.0,6.0,35,0.00,,,0.00,Rainwise IP-100,2013-03-24 20:54:00,
2013-03-24 14:59:00,40.0,14.0,27.17,NNW,337,4.0,8.0,32,0.00,,,0.00,Rainwise IP-100,2013-03-24 20:59:00,
2013-03-24 15:04:00,41.0,14.0,27.17,NNE,22,2.0,9.0,29,0.00,,,0.00,Rainwise IP-100,2013-03-24 21:04:00,
2013-03-24 15:09:00,41.0,11.0,27.17,ESE,112,0.0,7.0,26,0.00,,,0.00,Rainwise IP-100,2013-03-24 21:09:00,
2013-03-24 15:14:00,41.0,11.0,27.17,WNW,292,7.0,8.0,27,0.00,,,0.00,Rainwise IP-100,2013-03-24 21:14:00,
2013-03-24 15:19:00,40.0,11.0,27.17,NNW,337,12.0,12.0,27,0.00,,,0.00,Rainwise IP-100,2013-03-24 21:19:00,
2013-03-24 15:24:00,41.0,11.0,27.16,WNW,292,3.0,12.0,26,0.00,,,0.00,Rainwise IP-100,2013-03-24 21:24:00,
2013-03-24 15:29:00,42.0,11.0,27.16,North,360,1.0,9.0,25,0.00,,,0.00,Rainwise IP-100,2013-03-24 21:29:00,
2013-03-24 15:34:00,40.0,11.0,27.16,North,360,4.0,11.0,26,0.00,,,0.00,Rainwise IP-100,2013-03-24 21:34:00,
2013-03-24 15:39:00,40.0,8.0,27.16,NW,315,0.0,12.0,25,0.00,,,0.00,Rainwise IP-100,2013-03-24 21:39:00,
2013-03-24 15:44:00,41.0,8.0,27.16,West,270,7.0,8.0,24,0.00,,,0.00,Rainwise IP-100,2013-03-24 21:44:00,
2013-03-24 15:49:00,40.0,8.0,27.16,NW,315,2.0,10.0,25,0.00,,,0.00,Rainwise IP-100,2013-03-24 21:49:00,
2013-03-24 15:54:00,42.0,8.0,27.15,WNW,292,4.0,9.0,24,0.00,,,0.00,Rainwise IP-100,2013-03-24 21:54:00,
2013-03-24 15:59:00,41.0,8.0,27.15,NW,315,6.0,10.0,23,0.00,,,0.00,Rainwise IP-100,2013-03-24 21:59:00,
2013-03-24 16:04:00,42.0,8.0,27.15,West,270,0.0,9.0,24,0.00,,,0.00,Rainwise IP-100,2013-03-24 22:04:00,
2013-03-24 16:09:00,42.0,8.0,27.15,West,270,3.0,9.0,24,0.00,,,0.00,Rainwise IP-100,2013-03-24 22:09:00,
2013-03-24 16:14:00,42.0,8.0,27.14,NE,45,1.0,9.0,24,0.00,,,0.00,Rainwise IP-100,2013-03-24 22:14:00,
2013-03-24 16:19:00,43.0,8.0,27.14,SE,135,4.0,6.0,23,0.00,,,0.00,Rainwise IP-100,2013-03-24 22:19:00,
2013-03-24 16:25:00,42.0,11.0,27.14,WNW,292,4.0,9.0,25,0.00,,,0.00,Rainwise IP-100,2013-03-24 22:25:00,
2013-03-24 16:30:00,41.0,11.0,27.14,WSW,247,8.0,8.0,26,0.00,,,0.00,Rainwise IP-100,2013-03-24 22:30:00,
2013-03-24 16:35:00,42.0,11.0,27.14,NW,315,4.0,9.0,26,0.00,,,0.00,Rainwise IP-100,2013-03-24 22:35:00,
2013-03-24 16:40:00,43.0,11.0,27.14,South,180,3.0,7.0,26,0.00,,,0.00,Rainwise IP-100,2013-03-24 22:40:00,
2013-03-24 16:45:00,44.0,14.0,27.13,WNW,292,7.0,7.0,26,0.00,,,0.00,Rainwise IP-100,2013-03-24 22:45:00,
2013-03-24 16:50:00,43.0,8.0,27.13,North,360,0.0,8.0,23,0.00,,,0.00,Rainwise IP-100,2013-03-24 22:50:00,
2013-03-24 16:55:00,44.0,11.0,27.12,NE,45,3.0,6.0,25,0.00,,,0.00,Rainwise IP-100,2013-03-24 22:55:00,
2013-03-24 17:00:00,45.0,11.0,27.12,NW,315,4.0,6.0,24,0.00,,,0.00,Rainwise IP-100,2013-03-24 23:00:00,
2013-03-24 17:05:00,45.0,14.0,27.11,North,360,3.0,8.0,25,0.00,,,0.00,Rainwise IP-100,2013-03-24 23:05:00,
2013-03-24 17:10:00,44.0,11.0,27.11,NW,315,6.0,6.0,25,0.00,,,0.00,Rainwise IP-100,2013-03-24 23:10:00,
2013-03-24 17:15:00,44.0,14.0,27.12,NNW,337,4.0,7.0,26,0.00,,,0.00,Rainwise IP-100,2013-03-24 23:15:00,
2013-03-24 17:20:00,44.0,11.0,27.12,SSW,202,3.0,7.0,25,0.00,,,0.00,Rainwise IP-100,2013-03-24 23:20:00,
2013-03-24 17:25:00,45.0,11.0,27.11,SSW,202,0.0,5.0,23,0.00,,,0.00,Rainwise IP-100,2013-03-24 23:25:00,
2013-03-24 17:30:00,44.0,11.0,27.11,SE,135,4.0,7.0,25,0.00,,,0.00,Rainwise IP-100,2013-03-24 23:30:00,
2013-03-24 17:35:00,42.0,11.0,27.12,SSE,157,2.0,7.0,25,0.00,,,0.00,Rainwise IP-100,2013-03-24 23:35:00,
2013-03-24 17:40:00,43.0,11.0,27.12,South,180,1.0,3.0,26,0.00,,,0.00,Rainwise IP-100,2013-03-24 23:40:00,
2013-03-24 17:45:00,43.0,11.0,27.11,West,270,7.0,9.0,24,0.00,,,0.00,Rainwise IP-100,2013-03-24 23:45:00,
2013-03-24 17:50:00,43.0,11.0,27.11,West,270,4.0,8.0,26,0.00,,,0.00,Rainwise IP-100,2013-03-24 23:50:00,
2013-03-24 17:55:00,43.0,11.0,27.11,NNE,22,0.0,7.0,24,0.00,,,0.00,Rainwise IP-100,2013-03-24 23:55:00,
2013-03-24 18:00:00,44.0,14.0,27.11,ESE,112,4.0,6.0,26,0.00,,,0.00,Rainwise IP-100,2013-03-25 00:00:00,
2013-03-24 18:05:00,43.0,11.0,27.11,NNE,22,0.0,8.0,24,0.00,,,0.00,Rainwise IP-100,2013-03-25 00:05:00,
2013-03-24 18:10:00,43.0,11.0,27.11,WNW,292,3.0,6.0,26,0.00,,,0.00,Rainwise IP-100,2013-03-25 00:10:00,
2013-03-24 18:15:00,43.0,11.0,27.10,WSW,247,1.0,6.0,26,0.00,,,0.00,Rainwise IP-100,2013-03-25 00:15:00,
2013-03-24 18:20:00,43.0,11.0,27.10,NW,315,7.0,8.0,26,0.00,,,0.00,Rainwise IP-100,2013-03-25 00:20:00,
2013-03-24 18:25:00,42.0,11.0,27.11,West,270,5.0,8.0,27,0.00,,,0.00,Rainwise IP-100,2013-03-25 00:25:00,
2013-03-24 18:30:00,42.0,11.0,27.11,WNW,292,9.0,9.0,27,0.00,,,0.00,Rainwise IP-100,2013-03-25 00:30:00,
2013-03-24 18:35:00,41.0,11.0,27.11,West,270,7.0,11.0,27,0.00,,,0.00,Rainwise IP-100,2013-03-25 00:35:00,
2013-03-24 18:40:00,41.0,11.0,27.11,WSW,247,3.0,10.0,28,0.00,,,0.00,Rainwise IP-100,2013-03-25 00:40:00,
2013-03-24 18:45:00,41.0,11.0,27.11,West,270,3.0,11.0,28,0.00,,,0.00,Rainwise IP-100,2013-03-25 00:45:00,
2013-03-24 18:50:00,41.0,14.0,27.11,NW,315,5.0,8.0,29,0.00,,,0.00,Rainwise IP-100,2013-03-25 00:50:00,
2013-03-24 18:55:00,41.0,11.0,27.11,WNW,292,6.0,7.0,28,0.00,,,0.00,Rainwise IP-100,2013-03-25 00:55:00,
2013-03-24 19:00:00,41.0,11.0,27.11,WNW,292,3.0,6.0,28,0.00,,,0.00,Rainwise IP-100,2013-03-25 01:00:00,
2013-03-24 19:05:00,40.0,11.0,27.11,West,270,3.0,6.0,28,0.00,,,0.00,Rainwise IP-100,2013-03-25 01:05:00,
2013-03-24 19:10:00,39.0,11.0,27.11,WNW,292,5.0,7.0,30,0.00,,,0.00,Rainwise IP-100,2013-03-25 01:10:00,
2013-03-24 19:15:00,39.0,11.0,27.12,WNW,292,3.0,7.0,30,0.00,,,0.00,Rainwise IP-100,2013-03-25 01:15:00,
2013-03-24 19:20:00,39.0,11.0,27.12,WNW,292,2.0,5.0,31,0.00,,,0.00,Rainwise IP-100,2013-03-25 01:20:00,
2013-03-24 19:25:00,38.0,11.0,27.12,WNW,292,2.0,6.0,31,0.00,,,0.00,Rainwise IP-100,2013-03-25 01:25:00,
2013-03-24 19:30:00,38.0,11.0,27.12,NNW,337,3.0,6.0,32,0.00,,,0.00,Rainwise IP-100,2013-03-25 01:30:00,
2013-03-24 19:35:00,38.0,14.0,27.12,West,270,3.0,8.0,34,0.00,,,0.00,Rainwise IP-100,2013-03-25 01:35:00,
2013-03-24 19:40:00,37.0,14.0,27.12,WNW,292,4.0,5.0,36,0.00,,,0.00,Rainwise IP-100,2013-03-25 01:40:00,
2013-03-24 19:45:00,37.0,14.0,27.12,WNW,292,2.0,6.0,36,0.00,,,0.00,Rainwise IP-100,2013-03-25 01:45:00,
2013-03-24 19:50:00,36.0,14.0,27.12,WNW,292,6.0,6.0,38,0.00,,,0.00,Rainwise IP-100,2013-03-25 01:50:00,
2013-03-24 19:55:00,36.0,14.0,27.13,WNW,292,5.0,7.0,39,0.00,,,0.00,Rainwise IP-100,2013-03-25 01:55:00,
2013-03-24 20:00:00,36.0,14.0,27.13,WNW,292,1.0,5.0,40,0.00,,,0.00,Rainwise IP-100,2013-03-25 02:00:00,
2013-03-24 20:05:00,35.0,14.0,27.13,West,270,2.0,4.0,41,0.00,,,0.00,Rainwise IP-100,2013-03-25 02:05:00,
2013-03-24 20:10:00,34.0,16.0,27.13,West,270,1.0,2.0,43,0.00,,,0.00,Rainwise IP-100,2013-03-25 02:10:00,
2013-03-24 20:15:00,34.0,16.0,27.14,West,270,0.0,2.0,44,0.00,,,0.00,Rainwise IP-100,2013-03-25 02:15:00,
2013-03-24 20:20:00,33.0,16.0,27.14,West,270,0.0,1.0,46,0.00,,,0.00,Rainwise IP-100,2013-03-25 02:20:00,
2013-03-24 20:25:00,32.0,16.0,27.15,West,270,0.0,1.0,48,0.00,,,0.00,Rainwise IP-100,2013-03-25 02:25:00,
2013-03-24 20:30:00,32.0,16.0,27.15,West,270,0.0,0.0,50,0.00,,,0.00,Rainwise IP-100,2013-03-25 02:30:00,
2013-03-24 20:35:00,32.0,16.0,27.15,West,270,0.0,0.0,50,0.00,,,0.00,Rainwise IP-100,2013-03-25 02:35:00,
2013-03-24 20:40:00,32.0,16.0,27.15,West,270,0.0,1.0,50,0.00,,,0.00,Rainwise IP-100,2013-03-25 02:40:00,
2013-03-24 20:45:00,31.0,16.0,27.15,West,270,0.0,1.0,50,0.00,,,0.00,Rainwise IP-100,2013-03-25 02:45:00,
2013-03-24 20:50:00,31.0,16.0,27.15,West,270,0.0,3.0,52,0.00,,,0.00,Rainwise IP-100,2013-03-25 02:50:00,
2013-03-24 20:55:00,30.0,16.0,27.16,West,270,0.0,0.0,54,0.00,,,0.00,Rainwise IP-100,2013-03-25 02:55:00,
2013-03-24 21:00:00,30.0,16.0,27.16,West,270,0.0,0.0,55,0.00,,,0.00,Rainwise IP-100,2013-03-25 03:00:00,
2013-03-24 21:05:00,30.0,16.0,27.16,West,270,0.0,1.0,55,0.00,,,0.00,Rainwise IP-100,2013-03-25 03:05:00,
2013-03-24 21:10:00,30.0,18.0,27.16,West,270,0.0,0.0,57,0.00,,,0.00,Rainwise IP-100,2013-03-25 03:10:00,
2013-03-24 21:15:00,30.0,18.0,27.16,West,270,0.0,0.0,57,0.00,,,0.00,Rainwise IP-100,2013-03-25 03:15:00,
2013-03-24 21:20:00,30.0,16.0,27.16,ESE,112,2.0,3.0,53,0.00,,,0.00,Rainwise IP-100,2013-03-25 03:20:00,
2013-03-24 21:25:00,30.0,16.0,27.16,SSE,157,2.0,5.0,53,0.00,,,0.00,Rainwise IP-100,2013-03-25 03:25:00,
2013-03-24 21:30:00,30.0,16.0,27.16,SSE,157,3.0,5.0,54,0.00,,,0.00,Rainwise IP-100,2013-03-25 03:30:00,
2013-03-24 21:35:00,31.0,16.0,27.16,ESE,112,3.0,6.0,53,0.00,,,0.00,Rainwise IP-100,2013-03-25 03:35:00,
2013-03-24 21:40:00,30.0,16.0,27.16,SSE,157,2.0,5.0,54,0.00,,,0.00,Rainwise IP-100,2013-03-25 03:40:00,
2013-03-24 21:45:00,30.0,16.0,27.16,SE,135,3.0,6.0,55,0.00,,,0.00,Rainwise IP-100,2013-03-25 03:45:00,
2013-03-24 21:50:00,30.0,16.0,27.16,SE,135,2.0,5.0,55,0.00,,,0.00,Rainwise IP-100,2013-03-25 03:50:00,
2013-03-24 21:55:00,30.0,16.0,27.16,ESE,112,3.0,6.0,55,0.00,,,0.00,Rainwise IP-100,2013-03-25 03:55:00,
2013-03-24 22:00:00,30.0,18.0,27.16,SE,135,3.0,6.0,57,0.00,,,0.00,Rainwise IP-100,2013-03-25 04:00:00,
2013-03-24 22:01:00,30.0,18.0,27.16,ESE,112,3.0,6.0,57,0.00,,,0.00,Rainwise IP-100,2013-03-25 04:01:00,
2013-03-24 22:06:00,30.0,18.0,27.17,SE,135,3.0,6.0,57,0.00,,,0.00,Rainwise IP-100,2013-03-25 04:06:00,
2013-03-24 22:11:00,29.0,16.0,27.17,ESE,112,4.0,6.0,57,0.00,,,0.00,Rainwise IP-100,2013-03-25 04:11:00,
2013-03-24 22:16:00,29.0,16.0,27.17,ESE,112,3.0,6.0,56,0.00,,,0.00,Rainwise IP-100,2013-03-25 04:16:00,
2013-03-24 22:21:00,29.0,16.0,27.17,SE,135,5.0,5.0,57,0.00,,,0.00,Rainwise IP-100,2013-03-25 04:21:00,
2013-03-24 22:26:00,29.0,16.0,27.17,ESE,112,3.0,6.0,58,0.00,,,0.00,Rainwise IP-100,2013-03-25 04:26:00,
2013-03-24 22:31:00,29.0,16.0,27.17,East,90,1.0,5.0,58,0.00,,,0.00,Rainwise IP-100,2013-03-25 04:31:00,
2013-03-24 22:36:00,28.0,16.0,27.17,ESE,112,0.0,4.0,59,0.00,,,0.00,Rainwise IP-100,2013-03-25 04:36:00,
2013-03-24 22:41:00,28.0,16.0,27.17,East,90,1.0,5.0,60,0.00,,,0.00,Rainwise IP-100,2013-03-25 04:41:00,
2013-03-24 22:46:00,28.0,16.0,27.18,ESE,112,2.0,4.0,61,0.00,,,0.00,Rainwise IP-100,2013-03-25 04:46:00,
2013-03-24 22:51:00,28.0,16.0,27.18,ESE,112,5.0,7.0,61,0.00,,,0.00,Rainwise IP-100,2013-03-25 04:51:00,
2013-03-24 22:56:00,28.0,16.0,27.17,SE,135,3.0,6.0,62,0.00,,,0.00,Rainwise IP-100,2013-03-25 04:56:00,
2013-03-24 23:01:00,28.0,16.0,27.17,ESE,112,2.0,5.0,62,0.00,,,0.00,Rainwise IP-100,2013-03-25 05:01:00,
2013-03-24 23:06:00,28.0,16.0,27.17,SE,135,3.0,5.0,62,0.00,,,0.00,Rainwise IP-100,2013-03-25 05:06:00,
2013-03-24 23:11:00,28.0,16.0,27.17,ESE,112,2.0,4.0,62,0.00,,,0.00,Rainwise IP-100,2013-03-25 05:11:00,
2013-03-24 23:16:00,28.0,16.0,27.17,ESE,112,3.0,5.0,62,0.00,,,0.00,Rainwise IP-100,2013-03-25 05:16:00,
2013-03-24 23:21:00,27.0,16.0,27.17,ENE,67,3.0,6.0,63,0.00,,,0.00,Rainwise IP-100,2013-03-25 05:21:00,
2013-03-24 23:26:00,27.0,18.0,27.18,ENE,67,3.0,6.0,65,0.00,,,0.00,Rainwise IP-100,2013-03-25 05:26:00,
2013-03-24 23:31:00,27.0,18.0,27.18,East,90,2.0,6.0,66,0.00,,,0.00,Rainwise IP-100,2013-03-25 05:31:00,
2013-03-24 23:36:00,26.0,18.0,27.18,East,90,2.0,4.0,68,0.00,,,0.00,Rainwise IP-100,2013-03-25 05:36:00,
2013-03-24 23:41:00,26.0,18.0,27.18,ESE,112,3.0,5.0,68,0.00,,,0.00,Rainwise IP-100,2013-03-25 05:41:00,
2013-03-24 23:46:00,27.0,18.0,27.18,ESE,112,3.0,6.0,65,0.00,,,0.00,Rainwise IP-100,2013-03-25 05:46:00,
2013-03-24 23:51:00,27.0,18.0,27.18,ESE,112,2.0,5.0,65,0.00,,,0.00,Rainwise IP-100,2013-03-25 05:51:00,
2013-03-24 23:56:00,26.0,16.0,27.18,ESE,112,2.0,4.0,66,0.00,,,0.00,Rainwise IP-100,2013-03-25 05:56:00,